Sedona, AZ

11:28 AM MST on May 24, 2018 (GMT -0700)
Sedona

Weather History for KSEZ - January, 2013

Change the Weather History Date:

Thursday, January 3, 2013

  Actual Average Record
Temperature  
Mean Temperature 36 °F -  
Max Temperature 42 °F 52 °F 60 °F (2014)
Min Temperature 30 °F 28 °F 23 °F (2015)
Degree Days  
Heating Degree Days 29    
Moisture  
Dew Point 10 °F    
Average Humidity 36    
Maximum Humidity 44    
Minimum Humidity 25    
Precipitation  
Precipitation 0.00 in - - ()
Sea Level Pressure  
Sea Level Pressure 30.19 in    
Wind  
Wind Speed 15 mph (ENE)    
Max Wind Speed 23 mph    
Max Gust Speed 34 mph    
Visibility 10 miles    
Events      
Averages and records for this station are not official NWS values.
T = Trace of Precipitation, MM = Missing Value Source: NWS Daily Summary

Daily Weather History Graph

Daily Weather History Graph

Search for Another Location

Airport or City:

Astronomy

Jan. 03, 2013 Rise Set
Actual Time 7:35 AM MST 5:28 PM MST
Civil Twilight 7:07 AM MST 5:56 PM MST
Nautical Twilight 6:35 AM MST 6:28 PM MST
Astronomical Twilight 6:05 AM MST 6:58 PM MST
Moon 11:50 PM MST (1/3) 11:04 AM MST (1/3)
Length of Visible Light 10h 49m
Length of Day
9h 53m
Waning Gibbous, 65% of the Moon is Illuminated
Jan 3
Waning Gibbous
Jan 4
Last Quarter
Jan 11
New
Jan 18
First Quarter
Jan 26
Full

Hourly Weather History & Observations

Time (MST) Temp. Windchill Dew Point Humidity Pressure Visibility Wind Dir Wind Speed Gust Speed Precip Events Conditions
12:15 AM 35.6 °F 24.8 °F 8.6 °F 33% 30.10 in 10.0 mi NE 19.6 mph 26.5 mph N/A   Clear
12:35 AM 35.6 °F 25.5 °F 10.4 °F 35% 30.11 in 10.0 mi NNE 17.3 mph 25.3 mph N/A   Clear
12:55 AM 35.6 °F 26.6 °F 10.4 °F 35% 30.11 in 10.0 mi NE 13.8 mph 20.7 mph N/A   Clear
1:15 AM 35.6 °F 27.1 °F 10.4 °F 35% 30.12 in 10.0 mi ENE 12.7 mph 26.5 mph N/A   Clear
1:35 AM 33.8 °F 27.7 °F 10.4 °F 38% 30.13 in 10.0 mi ENE 6.9 mph 17.3 mph N/A   Clear
1:55 AM 33.8 °F 24.8 °F 10.4 °F 38% 30.13 in 10.0 mi NE 12.7 mph 20.7 mph N/A   Clear
2:15 AM 33.8 °F 26.4 °F 10.4 °F 38% 30.13 in 10.0 mi NE 9.2 mph 17.3 mph N/A   Clear
2:35 AM 33.8 °F 24.3 °F 10.4 °F 38% 30.13 in 10.0 mi ENE 13.8 mph 28.8 mph N/A   Clear
2:55 AM 33.8 °F 25.3 °F 10.4 °F 38% 30.13 in 10.0 mi ENE 11.5 mph 29.9 mph N/A   Clear
3:15 AM 32.0 °F 24.8 °F 10.4 °F 41% 30.13 in 10.0 mi ENE 8.1 mph 26.5 mph N/A   Clear
3:35 AM 32.0 °F 24.8 °F 10.4 °F 41% 30.13 in 10.0 mi ENE 8.1 mph 21.9 mph N/A   Clear
3:55 AM 32.0 °F 26.4 °F 10.4 °F 41% 30.13 in 10.0 mi NNE 5.8 mph 18.4 mph N/A   Clear
4:15 AM 32.0 °F 20.8 °F 8.6 °F 38% 30.12 in 10.0 mi NE 17.3 mph 26.5 mph N/A   Clear
4:35 AM 32.0 °F 21.6 °F 8.6 °F 38% 30.13 in 10.0 mi ENE 15.0 mph 26.5 mph N/A   Clear
4:55 AM 32.0 °F 21.6 °F 8.6 °F 38% 30.13 in 10.0 mi NE 15.0 mph 27.6 mph N/A   Clear
5:15 AM 32.0 °F 20.8 °F 8.6 °F 38% 30.13 in 10.0 mi ENE 17.3 mph 29.9 mph N/A   Clear
5:35 AM 32.0 °F 20.5 °F 8.6 °F 38% 30.14 in 10.0 mi NE 18.4 mph 32.2 mph N/A   Clear
6:15 AM 32.0 °F 20.5 °F 10.4 °F 41% 30.15 in 10.0 mi ENE 18.4 mph 32.2 mph N/A   Clear
6:35 AM 32.0 °F 19.2 °F 10.4 °F 41% 30.16 in 10.0 mi ENE 23.0 mph 34.5 mph N/A   Clear
6:55 AM 32.0 °F 19.5 °F 8.6 °F 38% 30.16 in 10.0 mi ENE 21.9 mph 29.9 mph N/A   Clear
7:15 AM 32.0 °F 19.8 °F 8.6 °F 38% 30.17 in 10.0 mi ENE 20.7 mph 29.9 mph N/A   Clear
7:55 AM 30.2 °F 17.4 °F 8.6 °F 40% 30.17 in 10.0 mi ENE 20.7 mph 32.2 mph N/A   Clear
8:15 AM 32.0 °F 22.1 °F 8.6 °F 38% 30.18 in 10.0 mi ENE 13.8 mph 28.8 mph N/A   Clear
8:35 AM 32.0 °F 19.2 °F 8.6 °F 38% 30.18 in 10.0 mi ENE 23.0 mph 34.5 mph N/A   Clear
8:55 AM 32.0 °F 21.2 °F 8.6 °F 38% 30.20 in 10.0 mi ENE 16.1 mph 33.4 mph N/A   Clear
9:15 AM 32.0 °F 19.2 °F 8.6 °F 38% 30.20 in 10.0 mi ENE 23.0 mph 32.2 mph N/A   Clear
9:35 AM 33.8 °F 22.5 °F 8.6 °F 35% 30.21 in 10.0 mi East 19.6 mph 32.2 mph N/A   Clear
9:55 AM 35.6 °F 26.6 °F 8.6 °F 33% 30.22 in 10.0 mi East 13.8 mph 23.0 mph N/A   Clear
10:15 AM 35.6 °F 25.9 °F 8.6 °F 33% 30.22 in 10.0 mi ENE 16.1 mph 26.5 mph N/A   Clear
10:35 AM 35.6 °F 25.2 °F 8.6 °F 33% 30.23 in 10.0 mi ENE 18.4 mph 28.8 mph N/A   Clear
10:55 AM 35.6 °F 25.2 °F 8.6 °F 33% 30.23 in 10.0 mi ENE 18.4 mph 29.9 mph N/A   Clear
11:15 AM 37.4 °F 28.2 °F 8.6 °F 30% 30.22 in 10.0 mi East 16.1 mph 28.8 mph N/A   Clear
11:35 AM 37.4 °F 28.9 °F 8.6 °F 30% 30.22 in 10.0 mi ENE 13.8 mph 29.9 mph N/A   Clear
11:55 AM 39.2 °F 30.5 °F 8.6 °F 28% 30.20 in 10.0 mi ENE 16.1 mph 24.2 mph N/A   Clear
12:15 PM 39.2 °F 29.6 °F 8.6 °F 28% 30.19 in 10.0 mi ENE 19.6 mph 32.2 mph N/A   Clear
12:35 PM 39.2 °F 29.8 °F 8.6 °F 28% 30.18 in 10.0 mi ENE 18.4 mph 25.3 mph N/A   Clear
12:55 PM 41.0 °F 33.5 °F 8.6 °F 26% 30.18 in 10.0 mi ENE 13.8 mph 25.3 mph N/A   Clear
1:15 PM 41.0 °F 32.8 °F 8.6 °F 26% 30.17 in 10.0 mi ENE 16.1 mph 25.3 mph N/A   Clear
1:35 PM 41.0 °F 33.1 °F 8.6 °F 26% 30.17 in 10.0 mi East 15.0 mph 25.3 mph N/A   Clear
1:55 PM 41.0 °F 32.8 °F 8.6 °F 26% 30.16 in 10.0 mi ENE 16.1 mph 21.9 mph N/A   Clear
2:15 PM 42.8 °F 35.8 °F 8.6 °F 25% 30.17 in 10.0 mi ENE 13.8 mph 23.0 mph N/A   Clear
2:35 PM 41.0 °F 33.5 °F 8.6 °F 26% 30.17 in 10.0 mi ENE 13.8 mph 20.7 mph N/A   Clear
2:55 PM 41.0 °F 33.9 °F 8.6 °F 26% 30.18 in 10.0 mi ENE 12.7 mph 24.2 mph N/A   Clear
3:15 PM 41.0 °F 33.9 °F 8.6 °F 26% 30.18 in 10.0 mi ENE 12.7 mph 21.9 mph N/A   Clear
3:55 PM 41.0 °F 34.3 °F 8.6 °F 26% 30.19 in 10.0 mi ENE 11.5 mph 20.7 mph N/A   Clear
4:15 PM 39.2 °F 31.2 °F 8.6 °F 28% 30.20 in 10.0 mi ENE 13.8 mph 19.6 mph N/A   Clear
4:35 PM 37.4 °F 29.8 °F 8.6 °F 30% 30.20 in 10.0 mi ENE 11.5 mph 18.4 mph N/A   Clear
4:55 PM 37.4 °F 29.3 °F 8.6 °F 30% 30.21 in 10.0 mi NE 12.7 mph 19.6 mph N/A   Clear
5:15 PM 35.6 °F 28.6 °F 8.6 °F 33% 30.21 in 10.0 mi ENE 9.2 mph 16.1 mph N/A   Clear
5:35 PM 35.6 °F 26.2 °F 10.4 °F 35% 30.21 in 10.0 mi East 15.0 mph 23.0 mph N/A   Clear
5:55 PM 33.8 °F 26.4 °F 10.4 °F 38% 30.22 in 10.0 mi ENE 9.2 mph 16.1 mph N/A   Clear
6:15 PM 33.8 °F 25.8 °F 10.4 °F 38% 30.22 in 10.0 mi ENE 10.4 mph - N/A   Clear
6:35 PM 33.8 °F 24.8 °F 10.4 °F 38% 30.22 in 10.0 mi ENE 12.7 mph - N/A   Clear
6:55 PM 32.0 °F 23.0 °F 12.2 °F 44% 30.23 in 10.0 mi ENE 11.5 mph 17.3 mph N/A   Clear
7:15 PM 32.0 °F 22.5 °F 12.2 °F 44% 30.22 in 10.0 mi ENE 12.7 mph 17.3 mph N/A   Clear
7:35 PM 32.0 °F 22.5 °F 12.2 °F 44% 30.22 in 10.0 mi ENE 12.7 mph 26.5 mph N/A   Clear
7:55 PM 33.8 °F 23.2 °F 12.2 °F 41% 30.22 in 10.0 mi East 17.3 mph 26.5 mph N/A   Clear
8:15 PM 33.8 °F 23.2 °F 12.2 °F 41% 30.21 in 10.0 mi ENE 17.3 mph 28.8 mph N/A   Clear
8:35 PM 33.8 °F 22.8 °F 12.2 °F 41% 30.21 in 10.0 mi ENE 18.4 mph 32.2 mph N/A   Clear
8:55 PM 33.8 °F 23.2 °F 12.2 °F 41% 30.22 in 10.0 mi ENE 17.3 mph 27.6 mph N/A   Clear
9:15 PM 33.8 °F 21.9 °F 12.2 °F 41% 30.22 in 10.0 mi East 21.9 mph 31.1 mph N/A   Clear
9:35 PM 33.8 °F 23.5 °F 12.2 °F 41% 30.23 in 10.0 mi ENE 16.1 mph 26.5 mph N/A   Clear
9:55 PM 33.8 °F 24.3 °F 12.2 °F 41% 30.24 in 10.0 mi ENE 13.8 mph 24.2 mph N/A   Clear
10:15 PM 33.8 °F 23.5 °F 12.2 °F 41% 30.24 in 10.0 mi ENE 16.1 mph 24.2 mph N/A   Clear
10:35 PM 33.8 °F 22.5 °F 12.2 °F 41% 30.24 in 10.0 mi ENE 19.6 mph 26.5 mph N/A   Clear
10:55 PM 33.8 °F 23.5 °F 12.2 °F 41% 30.25 in 10.0 mi ENE 16.1 mph 25.3 mph N/A   Clear
11:15 PM 33.8 °F 23.9 °F 10.4 °F 38% 30.25 in 10.0 mi NE 15.0 mph 24.2 mph N/A   Clear
11:35 PM 33.8 °F 24.8 °F 10.4 °F 38% 30.25 in 10.0 mi NE 12.7 mph 19.6 mph N/A   Clear
11:55 PM 33.8 °F 25.3 °F 10.4 °F 38% 30.26 in 10.0 mi NE 11.5 mph 16.1 mph N/A   Clear